The Dalles, WA

10:12 AM PST on November 20, 2017 (GMT -0800)
Columbia Gorge Regional-The Dalles

Weather History for KDLS - March, 2012

Change the Weather History Date:

Sunday, March 25, 2012

  Actual Average Record
Temperature  
Mean Temperature 48 °F -  
Max Temperature 64 °F 59 °F 77 °F (1997)
Min Temperature 33 °F 36 °F 26 °F (1972)
Degree Days  
Heating Degree Days 17    
Moisture  
Dew Point 34 °F    
Average Humidity 65    
Maximum Humidity 89    
Minimum Humidity 30    
Precipitation  
Precipitation 0.00 in - - ()
Sea Level Pressure  
Sea Level Pressure 29.77 in    
Wind  
Wind Speed 5 mph (North)    
Max Wind Speed 21 mph    
Max Gust Speed 28 mph    
Visibility 10 miles    
Events      
Averages and records for this station are not official NWS values.
T = Trace of Precipitation, MM = Missing Value Source: NWS Daily Summary

Daily Weather History Graph

Daily Weather History Graph

Search for Another Location

Airport or City:

Trip Planner

Search our weather history database for the weather conditions in past years. The results will help you decide how hot, cold, wet, or windy it might be!

Date:

Astronomy

Mar. 25, 2012 Rise Set
Actual Time 6:57 AM PDT 7:24 PM PDT
Civil Twilight 6:27 AM PDT 7:54 PM PDT
Nautical Twilight 5:52 AM PDT 8:29 PM PDT
Astronomical Twilight 5:15 AM PDT 9:06 PM PDT
Moon 8:01 AM PDT (3/25) 10:58 PM PDT (3/25)
Length of Visible Light 13h 27m
Length of Day
12h 27m
Waxing Crescent, 9% of the Moon is Illuminated
Mar 25
Waxing Crescent
Mar 30
First Quarter
Apr 6
Full
Apr 13
Last Quarter
Apr 21
New

Hourly Weather History & Observations

Time (PDT) Temp. Windchill Dew Point Humidity Pressure Visibility Wind Dir Wind Speed Gust Speed Precip Events Conditions
12:53 AM 39.9 °F 36.7 °F 35.1 °F 83% 29.91 in 10.0 mi East 4.6 mph - N/A   Mostly Cloudy
1:53 AM 39.0 °F 34.0 °F 33.1 °F 79% 29.90 in 10.0 mi ESE 6.9 mph - N/A   Scattered Clouds
2:53 AM 36.0 °F - 32.0 °F 86% 29.88 in 10.0 mi Calm Calm - N/A   Scattered Clouds
3:53 AM 36.0 °F 33.3 °F 32.0 °F 86% 29.86 in 10.0 mi ESE 3.5 mph - N/A   Clear
4:53 AM 35.1 °F 32.2 °F 30.9 °F 85% 29.86 in 10.0 mi ESE 3.5 mph - N/A   Clear
5:53 AM 33.1 °F 30.0 °F 30.0 °F 89% 29.85 in 10.0 mi ENE 3.5 mph - N/A   Clear
6:53 AM 33.1 °F 28.7 °F 30.0 °F 89% 29.84 in 10.0 mi SE 4.6 mph - N/A   Clear
7:53 AM 36.0 °F - 30.9 °F 82% 29.84 in 10.0 mi Calm Calm - N/A   Clear
8:53 AM 39.9 °F - 35.1 °F 83% 29.84 in 10.0 mi Calm Calm - N/A   Partly Cloudy
9:53 AM 43.0 °F - 36.0 °F 76% 29.82 in 10.0 mi Calm Calm - N/A   Clear
10:53 AM 46.0 °F - 36.0 °F 68% 29.79 in 10.0 mi Calm Calm - N/A   Clear
11:53 AM 48.0 °F - 37.0 °F 66% 29.76 in 10.0 mi Calm Calm - N/A   Clear
12:53 PM 51.1 °F - 34.0 °F 52% 29.73 in 10.0 mi Calm Calm - N/A   Scattered Clouds
1:53 PM 57.9 °F - 36.0 °F 44% 29.70 in 10.0 mi Calm Calm - N/A   Partly Cloudy
2:53 PM 61.0 °F - 32.0 °F 34% 29.68 in 10.0 mi Calm Calm - N/A   Clear
3:53 PM 63.0 °F - 30.9 °F 30% 29.67 in 10.0 mi North 3.5 mph - N/A   Overcast
4:53 PM 62.1 °F - 32.0 °F 32% 29.66 in 10.0 mi NW 5.8 mph - N/A   Mostly Cloudy
5:53 PM 55.9 °F - 35.1 °F 45% 29.67 in 10.0 mi NNW 12.7 mph - N/A   Clear
6:53 PM 55.0 °F - 37.0 °F 51% 29.68 in 10.0 mi NNW 16.1 mph - N/A   Clear
7:53 PM 52.0 °F - 37.9 °F 59% 29.70 in 10.0 mi NW 19.6 mph 25.3 mph N/A   Clear
8:53 PM 51.1 °F - 37.0 °F 59% 29.72 in 10.0 mi NW 13.8 mph - N/A   Clear
9:53 PM 50.0 °F - 37.9 °F 63% 29.73 in 10.0 mi WNW 15.0 mph - N/A   Clear
10:53 PM 48.0 °F - 37.0 °F 66% 29.74 in 10.0 mi NW 20.7 mph 27.6 mph N/A   Clear
11:53 PM 46.9 °F - 35.1 °F 63% 29.76 in 10.0 mi NW 11.5 mph - N/A   Clear